CAPE
0 0 0 0 0 0 0 0 0 0 0 0 0 0 0 0 0 0 0 0 0 0 11 264 126 274 220 379 475 626 519 97 5 0 0 0 3 0 0 0 0 0 0 0 0
0 0 0 0 0 0 0 0 0 0 0 0 0 0 0 0 0 0 0 0 13 138 68 71 2 214 5 10 134 249 337 243 0 0 0 0 6 0 3 0 0 0 0 0 0
0 0 0 0 0 0 0 0 0 0 0 0 0 0 0 0 0 0 0 0 17 2 0 14 57 43 58 33 143 253 145 3 0 0 0 0 0 0 2 0 0 0 0 0 0
0 0 0 0 0 0 0 0 0 0 0 0 0 0 0 0 0 0 0 0 37 235 29 0 19 10 32 103 148 143 115 12 0 0 0 0 0 1 5 0 0 0 0 0 0
0 0 0 0 0 0 0 0 0 0 0 0 0 0 0 0 0 0 0 0 63 254 353 90 0 0 66 88 79 60 62 3 0 0 0 0 0 0 2 0 0 0 0 0 0
0 0 0 0 0 0 0 0 0 0 0 0 0 0 0 0 0 0 0 0 75 299 570 418 63 1 111 93 72 40 38 12 1 1 0 0 0 3 11 0 0 0 0 0 8
0 0 0 0 0 0 0 0 0 0 0 0 0 0 0 0 0 0 0 0 39 166 296 376 179 83 65 99 61 47 30 17 22 0 11 0 0 2 88 10 1 2 8 8 9
0 0 0 0 0 0 0 0 0 0 0 0 0 0 0 0 0 0 0 0 0 85 185 198 324 25 109 66 21 61 3 42 42 20 0 0 0 74 75 39 12 2 14 12 0
0 0 0 0 0 0 0 0 0 0 0 0 0 0 0 0 0 0 0 0 0 0 0 0 0 125 171 43 18 13 0 8 14 92 4 0 0 0 0 5 16 31 37 17 0
0 0 0 0 0 0 0 0 0 0 0 0 0 0 0 0 0 0 0 0 0 0 0 0 30 15 14 3 0 16 3 8 19 62 68 0 0 0 0 0 5 43 62 48 14
0 0 0 0 0 0 0 0 0 0 0 0 0 0 0 0 0 0 0 0 0 0 0 0 22 14 62 10 2 32 53 36 20 107 265 132 13 0 0 4 0 0 56 78 35
0 0 0 0 0 0 0 0 0 0 0 0 0 0 0 0 0 0 0 0 0 0 8 0 9 35 53 32 30 46 70 29 23 76 191 138 144 85 10 0 0 0 0 55 29
0 0 0 0 0 0 0 0 0 0 0 0 0 0 0 0 0 0 0 0 0 0 0 9 51 67 44 57 56 60 47 46 135 101 73 64 60 3 86 71 1 0 0 3 23
0 0 0 0 0 0 0 0 0 0 0 0 0 0 0 0 0 0 0 0 0 0 0 0 0 0 2 19 0 1 9 56 120 179 138 36 50 123 106 139 4 0 0 0 0
0 0 0 0 0 0 0 0 0 0 0 0 0 0 0 0 0 0 0 0 0 0 0 0 0 0 0 0 0 0 0 0 0 0 55 13 33 55 101 140 62 18 0 0 0
0 0 0 0 0 0 0 0 0 0 0 0 0 0 0 0 0 0 0 0 0 0 0 0 0 0 0 0 0 0 0 0 0 0 0 0 44 100 70 180 169 184 38 0 0
0 0 0 0 0 0 0 0 0 0 0 0 0 0 0 0 0 0 0 0 0 0 0 0 0 0 0 0 0 0 0 0 0 0 0 0 14 45 69 44 205 127 311 219 2
0 0 0 0 0 0 0 0 0 0 0 0 0 0 0 0 0 0 0 0 0 0 0 0 0 0 0 0 0 0 0 0 0 0 0 0 0 15 61 2 3 5 48 60 220
0 0 0 0 0 0 0 0 0 0 0 0 0 0 0 0 0 0 0 0 0 0 0 0 0 0 0 0 0 0 0 0 0 0 0 0 0 10 5 4 73 36 67 69 179
0 0 0 0 0 0 0 0 0 0 0 0 0 0 0 0 0 0 0 0 0 0 0 0 0 0 0 0 0 0 0 0 0 0 0 0 0 4 9 4 24 1 181 152 266
0 0 0 0 0 0 0 0 0 0 0 0 0 0 0 0 0 0 0 0 0 0 0 0 0 0 0 0 0 0 0 0 0 0 0 0 0 0 23 6 42 369 723 773 516
0 0 0 0 0 0 0 0 0 0 0 0 0 0 0 0 0 0 0 0 0 0 0 0 0 0 0 0 0 0 0 0 0 0 0 0 0 0 4 2 107 502 809 858 850
0 0 0 0 0 0 0 0 0 0 0 0 0 0 0 0 0 0 0 0 0 0 0 0 0 0 0 0 0 0 0 0 0 0 0 0 1 1 41 160 608 552 646 630 594
0 0 0 0 0 0 0 0 0 0 0 0 0 0 0 0 0 0 0 0 0 0 0 0 0 0 0 0 0 0 0 0 0 0 0 0 0 12 16 137 540 684 703 546 365
0 0 0 0 0 0 0 0 0 0 0 0 0 0 0 0 0 0 0 0 0 0 0 0 0 0 0 0 0 0 0 0 0 0 0 0 0 0 19 326 502 584 495 301 204
0 0 0 0 0 0 0 0 0 0 0 0 0 0 0 0 0 0 0 0 0 0 0 0 0 0 0 0 0 0 0 0 0 0 0 0 0 1 346 350 311 212 180 47 0
0 0 0 0 0 0 0 0 0 0 0 0 0 0 0 0 0 0 0 0 0 0 0 0 0 0 0 0 0 0 0 0 0 0 1 19 167 295 229 141 37 8 10 1 0
CIN
-0 -0 -0 -0 -0 -0 -0 -0 -0 -0 -0 -0 -0 -0 -0 -0 -0 -0 -0 -0 -0 -0 -397 -274 -232 -160 -294 -199 -117 -145 -62 -47 -19 -0 -0 -0 -45 -0 -0 -0 -0 -0 -0 -0 -0
-0 -0 -0 -0 -0 -0 -0 -0 -0 -0 -0 -0 -0 -0 -0 -0 -0 -0 -0 -0 -89 -312 -292 -229 -69 -220 -90 -175 -157 -86 -53 -18 -0 -0 -0 -0 -33 -0 -92 -0 -0 -0 -0 -0 -0
-0 -0 -0 -0 -0 -0 -0 -0 -0 -0 -0 -0 -0 -0 -0 -0 -0 -0 -0 -0 -377 -76 -0 -235 -219 -174 -65 -106 -93 -71 -32 -3 -0 -0 -0 -0 -0 -0 -50 -0 -0 -0 -0 -0 -0
-0 -0 -0 -0 -0 -0 -0 -0 -0 -0 -0 -0 -0 -0 -0 -0 -0 -0 -0 -0 -350 -236 -237 -5 -266 -121 -118 -56 -92 -70 -17 -42 -0 -2 -0 -0 -0 -9 -118 -0 -0 -0 -0 -0 -0
-0 -0 -0 -0 -0 -0 -0 -0 -0 -0 -0 -0 -0 -0 -0 -0 -0 -0 -0 -0 -407 -244 -125 -161 -0 -0 -97 -106 -91 -47 -37 -28 -0 -0 -0 -0 -0 -0 -52 -0 -0 -0 -0 -0 -0
-0 -0 -0 -0 -0 -0 -0 -0 -0 -0 -0 -0 -0 -0 -0 -0 -0 -0 -0 -0 -357 -210 -154 -158 -161 -40 -60 -56 -47 -92 -73 -48 -18 -27 -0 -0 -0 -129 -84 -0 -0 -0 -0 -0 -376
-0 -0 -0 -0 -0 -0 -0 -0 -0 -0 -0 -0 -0 -0 -0 -0 -0 -0 -0 -0 -314 -245 -131 -219 -225 -128 -123 -68 -81 -72 -56 -45 -23 -3 -55 -0 -0 -143 -169 -240 -54 -343 -385 -374 -400
-0 -0 -0 -0 -0 -0 -0 -0 -0 -0 -0 -0 -0 -0 -0 -0 -0 -0 -0 -0 -0 -275 -172 -171 -158 -180 -142 -196 -113 -53 -96 -28 -27 -56 -0 -0 -0 -103 -156 -223 -270 -79 -378 -405 -61
-0 -0 -0 -0 -0 -0 -0 -0 -0 -0 -0 -0 -0 -0 -0 -0 -0 -0 -0 -0 -0 -0 -0 -0 -0 -105 -137 -118 -73 -100 -0 -50 -58 -56 -22 -0 -0 -0 -0 -198 -264 -297 -337 -410 -27
-0 -0 -0 -0 -0 -0 -0 -0 -0 -0 -0 -0 -0 -0 -0 -0 -0 -0 -0 -0 -0 -97 -0 -0 -117 -91 -159 -73 -0 -29 -12 -65 -21 -43 -57 -0 -0 -0 -0 -0 -258 -275 -320 -370 -424
-0 -0 -0 -0 -0 -0 -0 -0 -0 -0 -0 -0 -0 -0 -0 -0 -0 -0 -0 -0 -0 -0 -0 -0 -83 -58 -51 -85 -84 -59 -55 -44 -60 -79 -34 -79 -137 -0 -0 -342 -0 -18 -273 -315 -369
-0 -0 -0 -0 -0 -0 -0 -0 -0 -0 -0 -0 -0 -0 -0 -0 -0 -0 -0 -0 -0 -0 -70 -12 -107 -92 -77 -62 -99 -72 -48 -50 -36 -112 -111 -141 -75 -218 -55 -0 -46 -0 -0 -247 -349
-0 -0 -0 -0 -0 -0 -0 -0 -0 -0 -0 -0 -0 -0 -0 -0 -0 -0 -0 -0 -0 -0 -0 -145 -62 -50 -82 -87 -71 -84 -47 -56 -29 -56 -188 -149 -95 -82 -240 -267 -26 -0 -0 -57 -262
-0 -0 -0 -0 -0 -0 -0 -0 -0 -0 -0 -0 -0 -0 -0 -0 -0 -0 -0 -0 -0 -0 -0 -0 -0 -0 -11 -39 -0 -4 -40 -21 -60 -46 -37 -153 -24 -117 -181 -186 -82 -0 -0 -0 -0
-0 -0 -0 -0 -0 -0 -0 -0 -0 -0 -0 -0 -0 -0 -0 -0 -0 -0 -0 -0 -0 -0 -0 -0 -0 -0 -0 -0 -0 -0 -0 -0 -0 -53 -34 -74 -61 -117 -173 -161 -218 -244 -0 -0 -0
-0 -0 -0 -0 -0 -0 -0 -0 -0 -0 -0 -0 -0 -0 -0 -0 -0 -0 -0 -0 -0 -0 -0 -0 -0 -0 -0 -0 -0 -0 -0 -0 -0 -0 -0 -0 -71 -86 -128 -127 -145 -172 -168 -32 -0
-0 -0 -0 -0 -0 -0 -0 -0 -0 -0 -0 -0 -0 -0 -0 -0 -0 -0 -0 -0 -0 -0 -0 -0 -0 -0 -0 -0 -0 -0 -0 -0 -0 -0 -0 -0 -69 -47 -136 -208 -101 -115 -148 -219 -22
-0 -0 -0 -0 -0 -0 -0 -0 -0 -0 -0 -0 -0 -0 -0 -0 -0 -0 -0 -0 -0 -0 -0 -0 -0 -0 -0 -0 -0 -0 -0 -0 -0 -0 -0 -0 -0 -32 -105 -282 -65 -253 -301 -324 -256
-0 -0 -0 -0 -0 -0 -0 -0 -0 -0 -0 -0 -0 -0 -0 -0 -0 -0 -0 -0 -0 -0 -0 -0 -0 -0 -0 -0 -0 -0 -0 -0 -0 -0 -0 -0 -0 -112 -203 -156 -235 -249 -333 -231 -219
-0 -0 -0 -0 -0 -0 -0 -0 -0 -0 -0 -0 -0 -0 -0 -0 -0 -0 -0 -0 -0 -0 -0 -0 -0 -0 -0 -0 -0 -0 -0 -0 -0 -0 -0 -0 -0 -26 -114 -150 -299 -5 -171 -136 -126
-0 -0 -0 -0 -0 -0 -0 -0 -0 -0 -0 -0 -0 -0 -0 -0 -0 -0 -0 -0 -0 -0 -0 -0 -0 -0 -0 -0 -0 -0 -0 -0 -0 -0 -0 -0 -0 -0 -84 -73 -194 -157 -190 -193 -244
-0 -0 -0 -0 -0 -0 -0 -0 -0 -0 -0 -0 -0 -0 -0 -0 -0 -0 -0 -0 -0 -0 -0 -0 -0 -0 -0 -0 -0 -0 -0 -0 -0 -0 -0 -0 -0 -9 -227 -113 -183 -234 -255 -292 -288
-0 -0 -0 -0 -0 -0 -0 -0 -0 -0 -0 -0 -0 -0 -0 -0 -0 -0 -0 -0 -0 -0 -0 -0 -0 -0 -0 -0 -0 -0 -0 -0 -0 -0 -0 -0 -78 -54 -200 -239 -276 -273 -315 -349 -372
-0 -0 -0 -0 -0 -0 -0 -0 -0 -0 -0 -0 -0 -0 -0 -0 -0 -0 -0 -0 -0 -0 -0 -0 -0 -0 -0 -0 -0 -0 -0 -0 -0 -0 -0 -0 -0 -89 -181 -174 -209 -281 -341 -375 -428
-0 -0 -0 -0 -0 -0 -0 -0 -0 -0 -0 -0 -0 -0 -0 -0 -0 -0 -0 -0 -0 -0 -0 -0 -0 -0 -0 -0 -0 -0 -0 -0 -0 -0 -0 -0 -0 -0 -185 -211 -255 -328 -387 -424 -495
-0 -0 -0 -0 -0 -0 -0 -0 -0 -0 -0 -0 -0 -0 -0 -0 -0 -0 -0 -0 -0 -0 -0 -0 -0 -0 -0 -0 -0 -0 -0 -0 -0 -0 -0 -0 -1 -5 -284 -362 -365 -363 -339 -350 -0
-0 -0 -0 -0 -0 -0 -0 -0 -0 -0 -0 -0 -0 -0 -0 -0 -0 -0 -0 -0 -0 -0 -0 -0 -0 -0 -0 -0 -0 -0 -0 -0 -0 -0 -83 -120 -248 -277 -293 -407 -519 -575 -403 -171 -0
Wind_Speed
14 12 12 12 13 14 15 16 16 16 16 15 15 15 15 15 16 16 17 18 19 22 22 22 20 20 27 19 19 20 15 15 23 25 22 27 29 30 30 24 29 22 27 32 32
17 16 15 15 14 14 15 16 17 17 17 16 15 14 14 14 14 17 19 19 22 22 20 21 19 25 21 18 16 18 14 16 22 26 29 28 28 31 26 30 8 18 29 30 34
19 19 18 17 16 16 16 17 17 17 17 17 16 15 14 13 15 17 21 22 25 24 20 16 10 8 5 6 14 17 12 25 27 30 30 30 31 30 26 28 24 26 29 31 35
19 19 19 19 18 17 17 17 17 18 18 17 16 15 15 14 20 14 20 24 24 22 17 18 6 6 5 8 11 14 10 24 28 29 29 29 29 29 27 25 23 23 28 31 32
20 20 20 19 18 18 17 17 18 18 18 18 17 16 15 18 17 19 19 24 23 23 17 11 13 11 8 8 13 16 11 27 28 27 27 27 27 26 25 26 27 28 28 30 32
20 20 20 19 19 18 18 17 17 18 18 18 18 17 10 17 12 18 17 20 20 22 18 18 17 16 14 7 6 11 11 22 27 26 27 27 26 23 25 28 29 29 29 30 30
21 20 19 19 19 18 18 18 17 18 18 18 18 18 15 17 12 16 15 17 19 18 18 17 14 16 14 18 15 11 13 22 11 22 26 24 16 23 26 29 28 27 27 29 29
22 21 20 20 19 19 18 18 18 18 18 19 18 12 16 20 11 11 16 14 17 18 20 18 15 14 13 16 16 15 17 20 21 18 23 22 21 22 26 26 26 25 26 28 29
22 21 21 20 20 20 19 18 18 16 11 12 12 10 17 19 14 20 18 12 19 18 19 18 15 14 16 15 14 15 21 22 18 18 23 20 20 23 26 23 24 24 26 27 29
22 22 21 21 20 20 19 18 12 13 12 11 11 12 13 12 13 19 21 21 20 16 17 17 11 12 14 15 12 19 17 20 19 12 14 12 18 21 21 22 24 24 27 26 27
23 22 22 22 21 20 16 13 13 14 10 8 10 8 15 12 11 14 20 21 25 11 16 14 11 16 17 17 16 19 16 17 21 21 13 14 13 20 21 18 25 25 25 27 22
23 22 22 22 21 20 13 11 12 16 20 10 15 10 20 19 11 6 13 6 6 9 10 19 17 17 20 20 17 10 19 11 15 20 18 17 12 19 20 20 22 24 25 25 22
24 22 21 21 20 15 12 5 14 22 19 20 2 2 5 9 4 3 8 8 5 4 24 7 20 18 19 18 13 12 17 14 18 20 14 17 17 18 24 25 25 23 24 24 21
24 23 22 21 15 16 20 19 19 13 18 14 7 9 6 7 15 28 23 3 8 18 24 23 20 20 19 19 16 16 20 23 6 8 11 3 18 20 21 24 16 24 28 27 24
26 24 22 19 18 12 12 19 19 13 16 13 10 12 5 5 12 9 23 9 21 29 23 25 22 19 20 21 19 18 16 19 23 8 10 5 21 19 11 11 14 21 24 31 31
28 26 23 15 18 23 20 19 12 13 14 12 9 11 7 10 15 16 5 18 21 27 27 28 24 23 19 20 20 17 17 19 17 18 24 10 5 15 10 16 13 17 27 28 30
30 27 22 17 15 17 19 13 9 12 16 11 9 8 9 9 11 14 3 5 16 19 26 26 27 25 23 23 22 18 16 15 14 15 7 13 9 8 21 21 20 23 28 26 27
31 27 13 12 17 18 14 9 10 12 18 18 7 9 9 8 24 4 8 11 22 16 19 20 19 16 24 17 9 10 10 12 18 21 22 13 6 11 23 20 21 22 22 27 28
29 18 18 20 1 12 11 9 10 11 18 19 5 8 7 20 17 3 6 7 5 18 10 13 20 19 12 6 6 9 10 12 16 18 18 14 10 11 11 19 20 15 19 26 29
24 20 18 9 3 9 13 13 14 15 21 16 12 10 14 19 16 17 3 15 15 11 9 16 19 17 13 8 13 14 12 17 15 16 16 14 11 5 8 16 16 14 12 12 23
18 17 13 2 7 15 15 19 22 26 22 17 15 18 15 16 20 19 7 28 9 10 7 7 17 16 10 10 12 17 16 14 12 11 14 15 16 7 9 14 13 13 12 15 9
18 14 7 1 12 19 25 20 20 28 28 26 18 17 18 19 18 18 11 19 25 16 10 11 12 16 19 23 20 19 21 16 13 13 13 15 16 7 9 10 10 12 12 15 13
20 17 11 8 18 21 23 26 26 33 32 23 18 18 20 19 16 17 17 17 16 11 9 11 16 19 22 18 19 16 22 22 17 15 15 16 8 4 6 7 10 11 13 14 12
16 17 17 18 19 19 23 27 26 28 23 17 18 20 21 22 19 19 20 19 15 13 13 14 15 14 15 16 19 24 25 24 20 18 15 12 1 1 1 5 6 8 11 12 12
15 16 17 20 21 26 25 24 27 22 16 17 20 21 21 22 21 20 20 19 17 21 17 17 22 22 20 22 23 22 25 26 23 20 17 5 5 5 4 2 2 2 5 7 9
17 18 20 20 22 23 19 20 21 18 19 18 15 16 17 19 19 21 22 19 19 22 20 22 23 22 24 26 26 24 21 22 22 21 12 9 14 11 6 7 9 11 9 10 11
20 19 18 21 22 20 20 19 18 15 17 14 13 15 16 19 22 24 22 24 24 23 25 22 22 23 27 26 21 21 25 19 18 21 16 15 12 4 7 9 11 12 14 14 15
Wind_Direction
284 271 259 244 232 225 220 220 221 226 230 227 229 234 240 249 242 191 168 150 136 137 144 131 133 117 128 124 147 141 159 168 158 147 163 124 147 156 149 105 134 177 121 129 122
299 292 284 272 256 240 232 227 224 224 234 234 231 230 241 259 213 190 174 89 110 139 142 133 126 111 105 128 143 144 176 161 149 132 131 136 138 129 120 126 150 80 120 125 134
305 302 297 287 274 262 248 238 230 225 227 236 234 234 238 238 177 157 139 124 131 131 120 145 29 200 224 213 143 151 165 130 123 115 120 122 116 124 115 141 120 116 125 130 147
303 298 297 292 282 274 264 249 238 228 224 225 237 237 238 229 115 178 99 124 136 141 146 166 242 278 269 179 172 157 185 133 120 122 125 125 127 135 136 138 120 116 124 135 143
300 297 294 287 283 275 266 254 243 234 223 219 222 246 244 123 139 104 97 124 136 137 165 211 178 137 294 160 158 140 179 124 120 120 127 125 131 123 130 120 123 125 129 141 148
299 295 292 287 281 273 266 253 241 231 215 207 213 238 169 116 266 99 99 115 127 136 156 166 119 119 120 214 223 183 196 147 128 131 136 128 152 115 128 124 129 135 141 147 153
299 291 287 283 278 272 265 255 243 230 209 193 201 189 122 141 264 104 102 119 126 132 166 156 70 59 131 89 179 205 191 149 213 163 125 101 188 125 128 132 134 140 145 153 159
300 292 285 283 278 273 266 253 241 228 213 188 172 84 152 199 113 98 125 117 132 146 169 177 163 152 178 98 162 213 190 167 157 199 163 152 144 119 130 131 141 145 150 160 166
300 293 287 282 277 274 266 251 237 255 318 333 336 54 164 239 130 160 140 107 149 159 180 199 113 80 60 103 198 194 166 170 205 215 153 192 133 133 140 133 144 151 161 165 172
303 295 288 284 279 276 268 245 2 298 13 26 3 349 157 122 129 158 161 162 161 156 185 172 68 96 26 77 269 149 158 212 164 295 87 62 170 123 135 139 148 153 168 169 167
302 296 291 286 281 281 293 320 328 338 14 65 49 60 333 1 308 124 147 153 193 128 156 203 113 163 173 162 134 160 159 309 236 172 73 109 110 148 141 138 156 160 163 177 159
301 293 290 283 276 270 302 341 11 343 319 168 178 167 202 270 329 70 113 90 99 113 100 223 187 191 204 191 162 157 201 107 188 163 154 154 101 147 149 156 158 160 166 167 155
298 292 288 279 265 284 301 143 333 313 329 316 11 29 108 6 43 19 110 119 318 259 207 236 206 222 206 173 142 141 174 139 149 115 255 138 192 194 177 196 182 171 175 166 151
294 290 285 278 281 271 248 224 267 354 333 343 359 323 315 352 310 206 169 42 303 189 213 227 228 256 178 187 175 208 187 193 1 16 337 134 276 188 176 247 163 179 184 180 165
292 286 280 276 260 279 292 266 279 2 332 2 19 14 38 81 333 288 230 275 260 219 256 230 250 267 255 201 241 210 253 272 280 8 353 99 276 283 108 126 143 172 177 187 186
292 284 279 301 267 208 257 261 305 347 341 358 29 10 68 127 189 280 302 256 254 240 246 240 242 250 250 231 247 250 264 282 277 293 284 321 135 307 127 149 127 162 182 180 181
290 277 280 278 276 272 269 288 331 337 306 358 19 50 92 102 153 290 2 301 282 274 250 252 246 244 233 238 249 279 311 300 300 341 102 3 44 12 160 155 141 160 172 171 174
293 280 304 293 270 277 288 304 324 324 306 306 16 27 99 98 192 48 308 308 259 272 269 269 264 296 226 167 326 331 6 346 316 307 282 359 16 94 152 135 145 172 192 188 182
298 308 294 272 196 283 279 288 309 326 309 307 4 52 39 174 270 357 132 122 339 152 288 292 272 264 96 17 47 327 332 5 340 339 332 350 24 26 78 137 151 138 199 206 193
301 296 289 301 124 282 274 275 286 300 300 300 302 320 315 290 287 279 313 221 196 150 151 292 285 292 298 328 297 321 333 314 328 323 331 330 347 21 99 132 147 140 35 112 165
305 297 294 28 275 275 273 270 273 276 295 310 312 301 310 307 300 295 202 249 273 296 169 289 298 299 316 330 346 320 315 319 331 341 335 327 334 329 106 107 88 43 5 22 55
297 296 291 358 283 277 268 274 283 275 277 286 303 303 299 298 307 306 292 296 281 279 285 280 306 296 291 291 311 309 304 313 320 328 328 333 330 321 100 90 74 48 28 34 38
290 286 272 283 291 280 278 274 278 272 271 283 289 300 302 299 300 311 304 317 327 299 291 281 291 297 292 299 303 316 315 322 308 301 313 325 334 326 76 50 49 64 57 46 34
291 284 278 273 290 292 281 277 282 286 280 284 284 290 293 287 296 293 296 302 321 316 311 299 297 299 299 305 305 299 302 315 328 310 304 315 192 175 91 78 48 44 47 42 34
299 290 289 276 284 283 279 283 284 290 291 288 286 285 287 285 286 287 293 294 304 305 305 303 289 293 301 300 301 302 306 304 308 312 314 303 175 214 201 227 293 16 23 18 10
294 292 287 279 286 290 284 280 284 290 293 291 291 304 298 285 286 286 290 295 296 299 301 302 291 294 293 298 298 296 308 311 309 313 324 302 289 297 296 297 294 295 301 313 328
302 296 291 283 288 293 292 287 288 287 305 303 300 302 304 297 291 286 290 287 290 292 293 296 293 292 288 296 302 291 298 305 313 315 308 291 294 285 298 302 300 305 308 312 318